Dewpoint
1 1 1 1 1 1 1 1 1 1 1 0 0 2 3 3 5 6 5 6 7 5 -0 -2 -1 -2 6 8 8 6 6 7 8 9 8 6 5 3 3 2 2 3 1 -1 1 2 2
1 1 1 2 1 1 0 1 1 1 1 0 0 1 2 1 4 5 6 6 7 5 1 -1 1 -1 6 7 6 7 5 6 8 9 9 7 6 4 4 3 3 2 2 2 2 2 2
1 1 2 1 0 1 1 1 1 1 1 0 0 0 -0 -1 2 4 5 6 7 5 2 -0 4 2 4 4 3 4 7 6 8 9 9 8 8 6 5 5 4 4 5 3 2 2 3
2 2 2 1 1 0 0 -0 1 0 0 1 0 -0 -0 1 -1 3 5 5 6 6 1 0 2 5 3 2 3 0 3 6 8 9 9 9 8 7 5 4 3 4 3 5 1 1 0
2 2 2 1 1 1 -1 -0 1 -1 -0 0 0 0 -0 0 -0 1 3 6 5 6 2 2 3 5 3 2 1 2 2 5 7 6 7 8 7 6 5 5 4 3 4 3 2 0 1
2 2 2 2 1 0 -0 1 -1 -2 -2 -1 -0 -1 -2 -2 -1 -1 1 4 5 5 4 6 6 5 3 3 4 3 2 5 5 5 6 5 4 3 4 4 6 3 5 3 2 0 2
2 1 1 1 2 0 0 -0 -1 -2 -1 -2 -1 -2 -1 -2 -1 1 1 3 6 5 6 4 4 3 4 4 4 3 2 4 4 4 4 3 4 5 2 1 1 2 2 2 1 -1 1
1 0 0 0 1 -1 -2 -2 -2 -2 -2 -2 -2 -2 -1 -3 -1 0 0 2 3 5 5 3 3 3 4 3 3 3 2 3 3 5 2 4 6 2 0 1 2 2 3 3 0 -1 -0
1 0 1 0 -1 -1 -3 -2 -3 -3 -3 -2 -2 -2 -2 -1 -1 -3 0 -1 3 4 4 4 3 3 4 3 2 3 2 1 3 3 3 5 2 0 1 2 3 3 3 2 2 -0 -1
0 0 -1 -0 -1 -2 -2 -2 -2 -3 -3 -1 -1 -1 -1 0 -1 2 2 -3 3 4 6 4 3 2 4 3 3 3 2 2 2 3 3 3 1 1 2 3 2 4 -0 0 1 2 3
0 -0 -1 -1 -1 -2 -2 -1 -2 -2 -1 -2 -2 -1 0 0 1 -1 2 2 2 3 8 2 3 3 3 1 2 3 2 2 2 2 2 3 2 2 2 1 0 2 0 1 1 2 3
-0 -1 -2 -2 -2 -1 -2 -2 -1 -1 -2 -1 -1 -0 1 1 1 -2 1 2 3 4 7 4 3 4 3 1 2 3 3 2 1 1 1 1 0 0 1 0 0 0 1 1 1 2 5
0 -1 -2 -2 -1 -1 -3 -2 -2 -2 -2 -1 -1 0 1 1 1 2 0 3 3 6 1 4 3 3 3 2 3 3 4 4 4 6 5 2 1 -0 -1 1 1 1 3 4 6 6 4
-0 -3 -2 -1 -2 -2 -4 -1 -2 -1 -1 -0 -0 -0 1 2 1 1 2 3 5 4 2 -0 3 2 3 2 2 1 2 4 1 1 3 4 6 2 1 1 2 3 2 3 2 -1 -2
-1 -3 -3 -3 -4 -3 -3 -2 -2 -1 -1 -0 0 0 2 2 1 1 2 4 6 1 1 2 2 4 4 2 3 2 2 3 1 1 5 4 4 -0 0 0 -0 2 4 1 3 1 3
-0 -2 -2 -4 -4 -3 -3 -2 -2 -2 -0 -0 1 0 2 2 1 2 3 5 2 -1 -0 0 2 2 3 2 3 2 2 0 0 -1 -1 2 5 -0 0 0 0 1 1 5 5 5 2
-0 -2 -3 -2 -4 -2 -3 -2 -2 -0 -0 1 1 1 2 1 1 2 4 5 1 -1 -1 0 1 1 1 1 1 1 2 1 -0 0 -1 0 2 3 1 3 1 3 4 4 1 3 4
-0 -1 -3 -3 -4 -2 -3 -3 -2 -0 0 1 1 2 2 1 3 3 4 4 -0 0 2 0 -1 -1 0 1 1 2 2 0 -0 -0 2 0 2 4 3 -2 -2 -2 1 1 5 4 4
-1 -1 -3 -4 -2 -3 -2 -5 -1 -2 1 2 0 0 1 2 4 3 3 3 1 3 2 2 2 0 -1 1 2 1 1 -1 -1 1 1 1 3 4 5 2 -1 0 -0 -1 2 4 6
-2 -1 -3 -3 -3 -3 -2 -6 -1 -3 1 2 1 2 2 2 3 1 4 3 4 3 2 1 2 -0 1 1 1 2 2 1 -0 -0 1 0 2 5 4 3 2 7 3 2 5 7 4
-2 -1 -2 -2 -3 -3 -3 -5 -2 -2 1 1 1 3 2 3 3 1 3 2 3 2 1 2 2 1 1 2 2 2 1 1 1 0 0 1 6 4 3 2 3 4 4 4 6 6 6
-3 -2 -2 -2 -2 -2 -4 -5 -3 -2 0 1 1 2 2 0 0 -1 0 3 3 2 1 2 2 2 2 2 2 3 2 1 2 1 1 2 6 5 5 3 3 5 4 5 7 6 6
-2 -2 -3 -2 -3 -2 -4 -4 -3 -4 -0 1 1 1 2 1 0 -1 0 1 1 1 2 1 1 2 2 2 2 2 2 2 1 2 2 4 5 5 6 3 4 7 7 7 6 5 6
-2 -3 -3 -3 -7 -3 -3 -3 -3 -9 -0 1 1 1 3 3 -0 -1 -0 -1 -0 -0 3 2 2 2 4 4 4 3 3 4 3 3 2 4 5 6 7 6 8 7 3 5 7 5 2
-3 -4 -3 -3 -3 -4 -4 -3 -3 -12 -1 1 1 1 2 2 0 -0 -1 -0 1 0 1 2 3 3 3 3 3 3 4 5 4 3 4 2 5 7 7 6 3 5 4 5 6 6 2
-3 -4 -12 -4 -12 -8 -4 -3 -7 -16 -3 0 1 1 1 3 0 -1 -0 -0 2 2 2 2 4 3 4 3 4 4 3 4 4 5 3 4 4 6 7 7 7 4 1 2 2 7 1
-2 -5 -18 -18 -19 -21 -7 -10 -6 -8 -12 -2 0 1 2 3 3 0 0 1 0 0 3 4 4 5 4 5 6 4 3 3 4 4 5 4 5 7 6 7 3 -0 1 3 6 4 1
-2 -3 -16 -19 -17 -21 -17 -4 -3 -3 -12 -9 -1 1 1 1 3 3 0 2 3 3 3 4 4 4 5 5 4 5 7 4 4 1 3 4 5 5 4 5 6 0 1 4 3 2 1
-3 -3 -5 -17 -16 -14 -14 -5 -4 -3 -3 -8 -3 -3 -0 1 4 3 3 2 3 3 3 4 4 3 4 4 5 5 6 4 3 5 2 4 2 3 3 3 0 1 1 1 2 2 1
Wind_Speed
19 20 17 20 21 22 22 22 23 23 24 24 24 23 21 18 15 18 19 19 17 15 12 11 10 10 13 12 11 5 5 9 17 18 17 16 16 15 11 11 10 13 16 15 15 18 17
21 20 21 21 22 25 23 24 24 25 25 24 25 23 22 21 18 15 19 17 23 16 13 11 10 10 12 12 8 11 4 4 11 20 19 16 9 10 7 7 10 2 11 15 16 17 18
19 22 23 26 26 24 25 24 25 24 25 26 24 25 24 21 20 18 17 17 23 17 13 12 10 9 11 15 5 11 14 5 6 17 19 14 8 6 7 5 10 10 13 14 19 21 15
23 24 25 26 26 27 28 26 25 26 25 26 26 26 25 24 21 19 15 19 20 23 15 13 10 6 7 13 17 7 7 8 6 9 12 12 13 4 6 3 5 6 10 11 5 7 14
23 24 26 27 27 30 31 27 30 29 25 24 26 27 26 25 22 21 19 13 22 22 17 15 11 7 6 10 11 14 9 10 10 8 7 9 10 6 4 9 8 11 9 13 9 8 7
25 25 27 29 29 33 30 28 29 28 26 24 25 26 23 20 19 17 23 16 25 22 19 16 7 5 10 8 8 10 14 12 12 15 13 9 7 6 10 11 7 9 14 10 10 5 8
26 28 30 30 31 32 31 29 30 28 27 24 25 23 20 19 18 15 18 11 13 11 28 11 14 4 8 8 8 11 18 17 14 16 8 10 7 12 16 15 15 5 9 10 9 7 15
27 28 30 31 30 33 32 32 29 27 25 23 23 21 17 22 20 17 17 9 9 3 10 15 8 11 8 11 7 14 19 14 16 13 11 6 12 16 11 10 11 12 13 15 14 12 12
27 29 31 32 34 32 31 29 28 26 22 23 23 22 22 18 20 19 17 23 14 7 5 19 15 17 10 10 8 20 22 16 16 16 16 10 4 11 13 11 10 12 13 13 15 16 17
27 30 28 30 32 31 30 28 27 23 21 23 23 22 24 17 15 9 13 17 15 12 5 11 12 10 11 8 5 16 21 11 6 14 13 11 8 5 11 13 11 12 9 11 12 10 7
27 28 32 34 32 31 29 28 25 22 25 26 22 23 21 18 19 21 10 10 8 10 6 15 12 10 16 12 18 14 19 5 10 10 7 4 7 13 11 12 9 7 3 4 6 10 12
28 32 32 31 32 29 28 26 25 26 24 24 26 26 33 26 15 16 14 12 22 4 4 6 7 13 16 17 8 13 14 5 4 6 11 9 2 5 9 6 11 3 4 6 7 4 7
29 32 31 30 30 28 28 26 27 24 22 27 29 33 25 14 10 10 11 18 2 5 11 8 9 14 17 12 11 13 13 11 8 5 9 11 14 7 10 9 7 9 2 2 4 5 7
29 31 30 29 29 29 28 26 28 24 25 31 31 29 7 4 11 16 17 5 7 8 7 7 12 17 9 17 10 14 14 12 14 11 4 8 6 19 14 15 6 13 11 5 6 8 12
27 29 29 29 29 29 29 28 26 23 27 32 30 13 4 10 7 17 11 3 2 12 12 12 17 11 7 17 7 13 14 11 14 14 7 6 4 3 7 8 12 6 9 15 12 18 12
27 30 30 29 29 29 29 30 23 22 28 32 29 7 3 11 10 14 1 1 2 8 16 18 7 6 8 18 10 13 13 13 11 18 13 1 3 6 7 5 9 9 4 2 4 5 10
27 30 29 29 29 29 30 31 23 27 30 30 16 3 10 10 12 6 1 2 7 22 9 3 9 9 9 14 11 14 16 5 17 15 15 6 4 5 4 10 13 9 10 6 8 9 5
27 30 29 28 28 28 29 32 26 29 34 21 4 2 12 11 2 2 1 2 14 10 1 4 6 5 15 16 9 12 10 2 10 10 13 10 1 5 12 9 8 14 15 16 7 10 8
28 28 30 27 27 28 29 32 27 31 26 13 4 4 8 3 3 4 1 2 6 3 1 3 4 2 9 13 6 6 8 5 12 12 11 10 5 3 3 4 11 11 17 18 19 16 22
26 25 28 27 26 28 27 31 27 30 23 8 3 2 1 5 3 9 4 8 6 5 7 8 9 10 10 12 2 8 6 4 10 12 7 8 5 7 8 10 6 6 14 17 17 10 19
26 26 26 25 25 25 27 29 28 29 22 7 6 2 1 1 3 10 2 4 9 4 3 3 4 3 4 4 5 4 6 6 6 9 5 5 4 9 17 22 21 20 23 23 20 20 17
23 23 26 23 24 24 25 28 25 26 20 21 6 5 9 2 8 12 4 6 6 4 2 2 3 5 3 3 2 3 5 6 6 10 10 4 3 4 16 21 21 20 22 18 19 19 19
21 22 22 22 22 23 23 25 25 23 25 10 12 7 4 3 5 6 4 7 6 4 4 5 3 4 2 1 4 5 4 3 1 4 11 5 3 3 5 10 19 9 4 8 11 13 10
21 21 20 20 20 21 22 22 23 21 20 14 7 6 5 2 7 5 5 5 7 4 3 3 1 2 3 4 5 4 8 10 12 11 10 4 4 2 6 10 3 2 5 8 10 14 9
20 20 20 21 22 22 22 21 22 20 19 12 12 6 5 1 5 4 7 4 7 6 2 3 2 2 2 2 3 3 2 1 8 14 10 11 4 3 3 6 15 6 3 4 4 7 12
18 18 20 20 21 19 18 19 21 19 17 8 9 8 1 4 5 4 5 6 5 4 4 2 1 2 2 2 1 1 2 3 2 4 3 8 9 4 2 3 4 5 9 4 1 2 15
16 16 18 19 21 21 20 20 19 18 16 12 5 10 1 4 2 8 7 7 6 5 1 1 2 0 1 1 2 2 4 1 3 3 6 4 3 5 6 4 8 7 5 1 2 7 15
16 16 17 18 19 21 20 19 19 19 16 13 5 6 8 4 9 4 10 6 6 8 3 5 3 3 2 2 1 2 3 2 3 5 4 6 5 4 4 5 6 3 6 7 6 9 9
15 17 17 18 18 19 19 20 18 19 17 15 7 8 10 8 6 5 8 11 9 5 2 5 3 3 2 2 2 2 2 3 4 3 3 4 6 3 5 3 8 8 11 11 6 9 7
Wind_Direction
353 354 352 347 347 340 338 336 333 335 333 331 329 323 317 288 282 297 262 255 245 265 262 251 243 212 198 226 242 230 201 203 203 190 192 192 198 209 211 204 212 234 255 245 256 259 254
349 350 344 341 335 333 329 328 327 329 328 328 324 320 313 314 275 303 257 254 243 251 248 237 236 211 205 237 216 226 200 204 191 199 192 194 216 220 253 215 215 263 265 268 255 256 250
343 343 332 331 331 328 325 327 325 324 322 322 320 314 312 304 283 286 261 248 240 241 237 221 219 200 227 222 231 229 220 219 192 198 193 193 202 186 208 223 227 260 264 264 248 242 236
338 338 329 325 323 323 316 317 317 316 315 317 317 311 305 306 298 274 275 237 235 227 220 209 207 200 242 219 227 232 197 211 185 167 190 184 193 222 238 103 204 239 242 255 132 228 231
333 329 328 327 323 317 317 319 315 314 308 308 311 308 300 294 303 269 270 231 233 211 200 191 185 196 242 247 221 210 192 187 180 151 151 172 183 190 169 225 226 218 256 218 248 198 248
332 331 328 321 320 316 317 317 316 316 309 310 308 306 307 295 305 283 273 272 227 189 187 170 158 190 226 215 183 182 185 180 164 144 129 154 195 226 215 215 225 237 220 254 257 157 235
333 329 325 322 320 317 320 320 322 319 311 308 310 307 316 298 301 300 284 288 180 175 180 175 187 152 145 149 145 171 174 168 169 165 168 181 214 218 231 226 253 285 297 274 273 279 284
330 332 327 325 322 321 325 323 320 319 312 315 314 312 301 308 299 299 285 273 239 5 176 204 191 171 158 158 141 165 167 168 180 186 167 145 227 233 258 267 250 255 264 267 279 286 297
329 334 333 331 325 329 328 325 324 319 318 320 317 313 308 308 300 288 265 264 221 234 202 185 176 179 168 171 169 176 179 189 194 202 193 193 217 227 231 227 241 246 259 273 279 304 295
337 340 337 335 334 333 330 328 324 324 322 321 320 314 318 313 301 298 248 279 238 227 176 155 195 196 178 172 192 177 181 162 191 207 188 231 198 194 214 231 234 258 277 282 285 292 274
333 334 330 335 335 334 334 331 330 332 330 322 313 311 306 288 290 283 286 218 190 198 179 144 149 162 169 176 131 178 174 177 183 184 173 185 223 207 228 232 233 247 16 288 297 291 305
338 333 340 339 340 339 337 338 338 335 328 322 323 319 320 302 271 262 241 178 162 202 158 134 138 170 160 191 153 146 170 204 213 205 219 256 110 211 224 211 217 77 225 251 246 268 257
338 336 342 342 343 342 343 343 342 335 326 330 329 325 314 273 217 201 202 158 182 252 153 145 169 164 161 172 155 174 177 177 171 167 218 232 219 212 233 214 194 205 176 249 223 208 247
337 340 343 345 345 344 346 344 344 336 336 337 336 337 342 170 185 163 158 127 231 126 129 165 140 153 164 161 182 177 180 194 217 219 160 203 205 196 195 215 187 208 207 219 262 253 292
338 341 345 346 347 346 345 350 341 339 340 341 345 358 57 146 152 158 137 167 225 140 129 141 137 148 141 186 144 180 190 196 203 205 210 191 242 216 161 199 212 161 215 244 290 280 275
340 344 347 347 347 348 348 351 342 338 341 342 347 354 71 139 159 150 94 239 335 110 138 147 132 179 156 178 173 186 184 204 207 207 217 229 244 183 183 207 229 212 343 181 211 273 273
343 345 349 347 350 352 348 349 344 340 342 345 342 358 139 149 137 158 133 311 111 130 126 176 144 151 157 172 186 182 185 143 197 191 201 201 230 132 141 204 205 199 231 220 290 241 269
343 343 349 350 352 350 355 349 347 346 349 2 348 40 158 142 77 293 246 347 130 143 71 98 129 158 153 164 165 181 177 86 189 187 192 197 198 251 243 242 224 250 220 227 234 232 232
346 348 347 353 355 350 356 350 351 351 358 358 52 45 170 225 143 157 272 112 118 136 62 141 119 128 150 159 166 192 190 114 174 179 170 167 215 284 233 204 233 237 243 246 244 263 253
352 350 351 352 357 350 357 353 357 0 359 48 82 98 251 275 309 154 192 131 108 52 69 87 106 127 135 161 28 169 153 156 186 198 75 188 224 233 272 311 334 241 249 252 249 255 266
349 354 351 353 359 357 359 358 3 8 25 69 31 39 43 166 224 153 107 96 130 130 75 76 115 151 143 153 171 167 158 143 174 201 183 226 241 257 265 273 279 272 270 269 260 256 254
351 354 352 355 357 358 1 2 5 11 29 51 36 359 352 208 178 153 156 148 95 72 30 79 139 146 146 153 86 171 193 203 211 178 200 211 259 276 280 269 263 269 272 273 271 265 258
349 352 354 357 356 357 1 2 7 15 19 30 19 353 264 171 184 166 148 155 154 152 64 55 91 139 184 24 344 298 218 290 11 180 201 200 202 270 261 327 305 267 261 262 265 257 259
347 353 356 354 352 354 359 4 6 12 21 15 16 360 324 148 193 187 155 156 151 194 93 99 67 182 45 59 336 254 232 244 238 227 211 215 183 229 293 309 278 221 294 279 282 288 341
340 352 0 359 355 359 358 4 359 8 19 39 40 17 330 240 206 162 177 152 122 155 155 104 111 53 15 303 286 287 184 209 241 238 217 210 166 278 276 299 277 309 332 292 332 309 355
337 348 357 355 354 350 350 348 356 1 10 23 6 10 287 295 210 178 168 166 151 162 183 167 85 210 248 283 233 286 266 356 190 133 196 193 206 210 312 311 289 298 13 352 259 267 9
329 337 347 352 356 354 349 345 350 352 352 6 7 3 240 288 299 211 193 187 197 213 71 82 168 183 232 233 264 245 258 9 262 222 178 173 196 228 245 265 279 274 343 340 341 330 341
322 325 338 342 345 352 350 346 344 339 346 350 330 344 6 277 283 275 213 195 188 210 181 127 164 195 149 195 186 223 254 309 285 269 217 204 190 204 192 230 274 25 305 338 341 315 315
315 317 326 333 335 339 343 344 339 334 341 341 323 327 323 244 261 246 227 215 223 221 226 181 345 116 108 120 223 274 296 303 296 280 225 248 228 323 221 253 322 307 284 308 305 297 300
Height
1515 1512 1508 1505 1502 1498 1494 1490 1487 1483 1479 1475 1471 1468 1465 1462 1461 1460 1460 1460 1460 1463 1463 1463 1464 1465 1468 1468 1466 1463 1465 1465 1467 1471 1475 1478 1479 1479 1475 1473 1477 1479 1478 1475 1477 1478 1478
1514 1511 1507 1503 1500 1495 1491 1487 1483 1479 1475 1472 1468 1465 1461 1458 1457 1455 1455 1457 1456 1459 1460 1460 1461 1463 1466 1465 1462 1463 1465 1466 1467 1469 1473 1476 1477 1477 1475 1475 1477 1475 1477 1476 1475 1475 1476
1512 1509 1505 1500 1496 1493 1488 1484 1479 1475 1471 1467 1463 1461 1456 1454 1452 1450 1449 1451 1453 1454 1457 1458 1460 1463 1465 1462 1460 1461 1464 1466 1466 1467 1470 1474 1477 1479 1479 1477 1478 1480 1479 1474 1470 1471 1471
1511 1507 1503 1498 1494 1489 1484 1479 1475 1471 1467 1464 1460 1455 1452 1448 1446 1445 1444 1444 1447 1450 1453 1454 1457 1462 1460 1456 1458 1460 1462 1465 1467 1466 1469 1473 1476 1479 1478 1478 1478 1477 1473 1470 1455 1462 1464
1508 1504 1499 1495 1490 1484 1479 1475 1471 1466 1462 1459 1455 1451 1447 1443 1441 1440 1439 1438 1441 1443 1448 1451 1456 1459 1456 1452 1455 1458 1461 1465 1467 1466 1469 1473 1477 1480 1480 1478 1474 1470 1464 1459 1456 1458 1463
1505 1500 1496 1491 1486 1480 1474 1470 1465 1461 1457 1453 1450 1445 1441 1439 1437 1435 1434 1432 1437 1440 1446 1450 1452 1459 1452 1451 1452 1456 1460 1464 1465 1465 1469 1473 1475 1474 1475 1471 1466 1458 1463 1460 1458 1456 1462
1503 1498 1492 1487 1482 1475 1469 1464 1460 1456 1451 1448 1444 1440 1437 1435 1433 1431 1432 1432 1434 1437 1436 1436 1440 1443 1447 1450 1453 1456 1459 1463 1464 1465 1465 1471 1476 1472 1464 1463 1460 1461 1463 1459 1454 1455 1459
1500 1494 1489 1483 1478 1470 1465 1460 1455 1451 1446 1443 1439 1436 1433 1431 1429 1427 1427 1428 1427 1431 1433 1435 1438 1443 1448 1449 1452 1456 1458 1461 1461 1462 1466 1473 1474 1467 1466 1465 1466 1466 1466 1463 1457 1456 1460
1496 1490 1484 1479 1472 1466 1460 1455 1450 1446 1442 1439 1435 1431 1429 1426 1425 1424 1422 1423 1424 1426 1427 1433 1438 1441 1446 1449 1448 1452 1456 1457 1459 1460 1462 1464 1463 1463 1467 1469 1471 1468 1469 1465 1463 1459 1459
1493 1488 1482 1476 1469 1462 1456 1451 1446 1442 1438 1434 1432 1427 1425 1423 1422 1419 1419 1416 1420 1427 1426 1432 1435 1438 1443 1445 1448 1451 1455 1457 1458 1459 1461 1464 1462 1466 1466 1467 1468 1467 1461 1462 1465 1470 1463
1491 1485 1478 1471 1465 1459 1453 1447 1443 1439 1435 1431 1427 1423 1419 1419 1417 1416 1418 1416 1420 1428 1406 1426 1431 1434 1438 1442 1446 1451 1453 1457 1455 1454 1460 1461 1463 1465 1469 1465 1466 1468 1469 1471 1471 1472 1473
1489 1482 1475 1468 1461 1456 1450 1444 1440 1436 1432 1426 1422 1417 1413 1408 1410 1410 1414 1415 1421 1421 1399 1421 1428 1430 1435 1440 1444 1448 1452 1457 1456 1457 1460 1457 1464 1464 1462 1465 1466 1469 1470 1472 1473 1476 1473
1487 1480 1472 1466 1460 1454 1448 1443 1438 1433 1428 1423 1416 1409 1401 1399 1404 1408 1411 1413 1421 1403 1409 1422 1423 1427 1431 1436 1441 1445 1449 1453 1453 1465 1464 1460 1459 1463 1464 1464 1466 1469 1474 1467 1469 1474 1451
1484 1478 1471 1465 1458 1452 1446 1441 1436 1430 1425 1419 1411 1400 1397 1397 1400 1405 1411 1417 1408 1397 1401 1413 1419 1425 1430 1434 1438 1442 1447 1450 1451 1451 1450 1458 1454 1454 1459 1459 1460 1467 1468 1459 1451 1434 1423
1481 1476 1469 1463 1457 1450 1444 1438 1433 1428 1423 1416 1408 1401 1399 1400 1400 1404 1409 1411 1396 1387 1401 1409 1422 1427 1429 1433 1434 1438 1442 1445 1445 1448 1451 1448 1451 1449 1453 1455 1458 1463 1471 1462 1462 1450 1449
1480 1474 1468 1462 1455 1449 1442 1437 1431 1427 1420 1414 1407 1403 1403 1404 1407 1409 1413 1405 1399 1396 1401 1408 1412 1418 1425 1428 1431 1433 1440 1436 1441 1441 1443 1444 1451 1449 1451 1457 1458 1458 1460 1471 1472 1458 1434
1479 1473 1467 1461 1454 1448 1441 1436 1429 1423 1417 1411 1406 1404 1405 1407 1411 1414 1410 1408 1401 1403 1405 1404 1407 1413 1419 1425 1427 1432 1437 1433 1435 1437 1443 1446 1448 1453 1457 1455 1446 1458 1461 1463 1452 1444 1434
1478 1471 1465 1460 1453 1448 1441 1434 1427 1421 1413 1407 1405 1405 1408 1409 1412 1411 1411 1407 1405 1408 1409 1407 1407 1407 1414 1422 1427 1428 1425 1428 1434 1436 1440 1445 1448 1449 1443 1438 1440 1439 1445 1449 1453 1434 1433
1478 1471 1465 1458 1453 1447 1441 1434 1427 1420 1411 1407 1408 1409 1412 1411 1411 1412 1414 1409 1408 1410 1409 1409 1410 1411 1414 1419 1423 1422 1424 1433 1436 1437 1438 1444 1448 1449 1439 1435 1435 1438 1437 1435 1435 1437 1422
1476 1469 1463 1457 1452 1447 1441 1434 1428 1420 1410 1409 1412 1413 1414 1412 1410 1408 1413 1409 1411 1413 1412 1411 1413 1414 1415 1419 1419 1422 1428 1434 1436 1438 1441 1442 1440 1444 1430 1424 1430 1444 1435 1430 1433 1426 1407
1475 1469 1463 1457 1452 1448 1442 1435 1429 1422 1414 1411 1412 1415 1415 1412 1410 1408 1412 1411 1413 1413 1415 1414 1416 1414 1414 1418 1421 1424 1427 1432 1437 1439 1441 1443 1445 1442 1436 1431 1428 1427 1422 1419 1424 1416 1413
1475 1468 1462 1457 1452 1448 1443 1437 1431 1424 1420 1417 1419 1417 1414 1410 1407 1408 1412 1416 1416 1416 1415 1417 1415 1417 1418 1417 1419 1421 1423 1427 1429 1436 1439 1442 1443 1441 1435 1425 1421 1419 1410 1410 1407 1402 1399
1473 1467 1462 1457 1452 1448 1444 1439 1433 1428 1423 1422 1422 1422 1422 1415 1411 1409 1409 1414 1416 1418 1421 1420 1419 1419 1421 1422 1425 1426 1428 1429 1430 1432 1436 1440 1443 1441 1424 1414 1410 1400 1402 1403 1398 1394 1393
1474 1467 1461 1456 1452 1449 1445 1440 1436 1431 1428 1426 1425 1424 1422 1417 1412 1410 1414 1415 1416 1418 1419 1423 1423 1422 1428 1426 1426 1425 1426 1427 1428 1431 1432 1434 1440 1440 1425 1419 1403 1393 1392 1396 1391 1383 1379
1472 1467 1461 1457 1453 1449 1445 1441 1437 1433 1429 1427 1425 1425 1424 1416 1413 1414 1415 1415 1417 1420 1422 1424 1425 1426 1427 1427 1423 1418 1420 1426 1419 1421 1425 1430 1437 1433 1425 1413 1392 1386 1386 1389 1390 1382 1376
1470 1466 1460 1456 1452 1449 1446 1441 1437 1433 1430 1427 1426 1425 1425 1423 1413 1414 1415 1416 1417 1418 1423 1424 1426 1426 1427 1426 1424 1424 1416 1411 1413 1422 1424 1427 1432 1433 1427 1421 1406 1383 1381 1385 1385 1381 1374
1467 1463 1458 1453 1448 1447 1444 1441 1437 1434 1430 1428 1426 1425 1423 1423 1415 1416 1415 1417 1419 1419 1421 1424 1425 1426 1427 1426 1425 1424 1419 1413 1410 1406 1420 1423 1426 1425 1424 1422 1397 1380 1383 1384 1381 1382 1377
1464 1461 1456 1451 1447 1443 1441 1439 1436 1434 1431 1428 1426 1424 1424 1423 1416 1415 1416 1417 1419 1419 1418 1425 1426 1426 1428 1426 1428 1426 1426 1412 1412 1402 1404 1405 1411 1414 1415 1417 1405 1383 1380 1382 1381 1380 1378
1461 1458 1453 1449 1446 1441 1439 1436 1434 1431 1429 1426 1424 1423 1422 1421 1416 1415 1414 1416 1417 1418 1420 1422 1422 1422 1424 1427 1431 1427 1421 1416 1411 1407 1402 1403 1394 1393 1394 1385 1379 1382 1382 1381 1380 1378 1377